Flag for Czech Republic Weather past 2 weeks in Ostrava, Czech Republic

Now
56 °F

Overcast.


Feels Like: N/A
Forecast: 55 / 68 °F
Wind: N/A

Location: Ostrava / Mosnov

Current Time: Apr 26, 2015 at 12:30:06 AM

Latest Report: Apr 25, 2015 at 11:00 PM


Visibility: 19 mi

Pressure: 29.85 "Hg

Humidity: 55%

Dew point: 40 °F

Location of OstravaLocation

Historic Weather in Ostrava — Graph

°F

Ostrava temperature yesterday

Maximum temperature yesterday: 71 °F (at 3:00 PM)
Minimum temperature yesterday: 44 °F (at 3:00 AM)
Average temperature yesterday: 59 °F

Past Weeks' High & Low Weather Summary

 TemperatureHumidityPressure
High71 °F (Apr 16, 1:00 PM)91% (Apr 17, 4:00 AM)30.42 "Hg (Apr 17, 4:00 AM)
Low33 °F (Apr 14, 3:00 AM)21% (Apr 21, 3:00 PM)29.82 "Hg (Apr 25, 6:00 PM)
Average51 °F57%30.11 "Hg
* Reported Midnight between Apr 10 and Apr 11 — Apr 25 11:00 PM, Ostrava, Weather by CustomWeather, © 2015

Note: Actual official high and low records may vary slightly from our data, if they occured in-between our weather recording intervals... More about our weather records

Advertising

Ostrava weather history for previous 24 hours

 ConditionsComfort  
Time TempWeatherWind HumidityBarometerVisibility
11:00 PM
Sat, Apr 25
56 °FOvercast.N/A55%29.85 "Hg19 mi
10:00 PM59 °FOvercast.N/A50%29.85 "Hg19 mi
9:00 PM63 °FOvercast.3 mph42%29.84 "Hg22 mi
8:00 PM65 °FOvercast.3 mph40%29.83 "Hg22 mi
7:00 PM67 °FPartly sunny.6 mph36%29.82 "Hg25 mi
6:00 PM69 °FPartly sunny.8 mph35%29.82 "Hg25 mi
5:00 PM71 °FPartly sunny.8 mph30%29.82 "Hg25 mi
4:00 PM71 °FPartly sunny.8 mph30%29.83 "Hg25 mi
3:00 PM71 °FScattered clouds.8 mph30%29.85 "Hg25 mi
2:00 PM71 °FScattered clouds.7 mph30%29.87 "Hg25 mi
1:00 PM69 °FPassing clouds.7 mph33%29.90 "Hg25 mi
12:00 PM69 °FPassing clouds.7 mph34%29.91 "Hg25 mi
11:00 AM66 °FPassing clouds.7 mph39%29.93 "Hg25 mi
10:00 AM64 °FPassing clouds.6 mph46%29.94 "Hg22 mi
9:00 AM58 °FPassing clouds.N/A56%29.96 "Hg22 mi
8:00 AM51 °FPassing clouds.N/A71%29.97 "Hg19 mi
7:00 AM46 °FPassing clouds.2 mph82%29.98 "Hg16 mi
6:00 AM45 °FSunny.2 mph81%29.98 "Hg19 mi
5:00 AM45 °FClear.3 mph81%29.97 "Hg16 mi
4:00 AM45 °FClear.3 mph79%29.98 "Hg16 mi
3:00 AM44 °FClear.1 mph88%29.98 "Hg16 mi
1:00 AM49 °FClear.2 mph79%29.97 "Hg16 mi
12:00 AM51 °FPassing clouds.2 mph75%29.98 "Hg16 mi
Weather by CustomWeather, © 2015

See weather overviewHow to use our weather pages